Location: Unspecified
(33.9239°N, 118.0544°W)
Time: 21:24:23
(UTC-07:00)

Resurs 1-4 Rocket - Visible Passes

Search period start: 01 September 2014 00:00
Search period end: 11 September 2014 00:00
Orbit: 800 x 815 km, 98.3° (Epoch: 01 September)

Date Brightness Start Highest point End Pass type
(mag) Time Alt. Az. Time Alt. Az. Time Alt. Az.
01 Sep 3.4 04:20:53 10° NNE 04:25:47 38° E 04:30:39 10° SSE visible
01 Sep 3.3 06:01:21 10° NNW 06:05:21 22° WNW 06:09:22 10° WSW visible
02 Sep 4.3 03:57:14 10° NE 04:01:14 22° E 04:05:14 10° SE visible
02 Sep 2.7 05:36:18 10° N 05:41:09 38° WNW 05:45:59 10° SW visible
03 Sep 4.8 03:34:42 10° ENE 03:36:37 12° E 03:38:32 10° ESE visible
03 Sep 2.1 05:11:37 10° N 05:16:51 66° WNW 05:22:05 10° SSW visible
04 Sep 2.3 04:47:11 10° NNE 04:52:29 72° ESE 04:57:45 10° S visible
05 Sep 3.3 04:23:03 10° NNE 04:28:01 40° E 04:32:58 10° SSE visible
06 Sep 4.2 03:59:20 10° NE 04:03:29 23° E 04:07:38 10° SSE visible
06 Sep 2.7 05:38:35 10° N 05:43:22 36° WNW 05:48:08 10° SW visible
07 Sep 4.8 03:36:33 10° ENE 03:38:53 13° E 03:41:12 10° ESE visible
07 Sep 2.1 05:13:51 10° N 05:19:04 62° WNW 05:24:17 10° SSW visible
08 Sep 2.2 04:49:24 10° NNE 04:54:43 76° ESE 05:00:00 10° S visible
09 Sep 3.2 04:25:14 10° NNE 04:30:16 43° E 04:35:17 10° S visible
09 Sep 3.5 06:06:01 10° NNW 06:09:46 20° WNW 06:13:31 10° WSW visible
10 Sep 4.1 04:01:27 10° NE 04:05:45 25° E 04:10:01 10° SSE visible
10 Sep 2.8 05:40:52 10° N 05:45:34 34° WNW 05:50:17 10° SW visible
